EHI
24 23 24 24 19 16 16 16 16 13 10 7 6 4 3 5 8 10 12 22 33 37 33 28 22 18 17 16 15 15 12 7 6 5 6 7 6 3 1 2 3 3 3
25 25 25 23 18 15 16 16 14 13 11 10 8 6 4 4 7 11 12 16 23 29 31 30 25 21 19 16 13 12 11 9 6 5 7 8 6 3 2 3 3 3 3
26 25 24 21 17 15 16 15 14 13 12 11 10 6 3 3 5 9 11 11 12 17 24 28 27 24 20 15 12 10 10 9 6 6 8 9 7 4 3 3 3 3 3
23 22 21 19 16 15 15 13 12 13 13 10 8 5 3 2 2 5 7 8 8 11 17 23 25 24 19 14 11 9 8 7 6 6 6 6 6 4 3 3 3 3 2
19 18 18 18 16 13 12 11 11 13 12 8 6 4 2 1 1 2 4 4 6 9 13 17 21 21 18 14 11 8 7 8 7 5 4 4 3 2 2 2 2 1 1
17 15 15 16 16 13 12 12 12 11 9 6 4 3 2 1 0 1 2 2 3 6 9 11 14 15 15 14 11 8 8 8 7 5 4 3 2 1 1 1 1 1 1
17 14 12 14 15 14 13 11 10 9 7 4 3 2 2 1 1 2 2 2 3 4 5 7 9 11 12 12 11 9 7 6 7 6 5 4 3 2 1 1 1 0 1
16 14 13 14 14 12 9 8 7 5 4 2 1 1 1 1 1 2 3 4 4 4 3 3 5 8 8 8 7 7 6 6 7 7 6 5 4 3 3 3 2 0 0
15 14 12 12 11 8 6 6 5 3 1 1 0 0 0 0 1 1 2 2 4 4 3 1 2 5 6 6 5 4 5 6 7 8 8 6 4 3 3 3 1 0 0
12 11 9 9 8 7 6 5 4 2 1 1 1 1 1 1 1 0 0 1 2 3 2 1 1 4 6 7 5 3 2 3 5 7 7 5 2 2 2 1 0 0 0
9 7 6 6 6 6 5 4 4 3 2 1 1 1 2 1 0 0 0 0 1 1 1 1 2 5 7 6 4 1 0 1 2 3 4 3 1 2 2 1 1 1 1
6 5 4 4 5 4 3 3 4 4 2 1 0 1 2 1 0 0 0 0 0 0 0 0 1 4 6 5 3 1 0 0 0 0 1 1 1 2 2 2 2 2 2
4 4 3 3 3 2 1 1 3 4 4 2 0 0 1 1 0 0 0 0 0 0 0 0 1 2 4 4 2 1 0 0 0 0 0 0 0 1 1 1 1 1 1
3 3 3 3 3 3 1 1 2 4 4 2 1 1 0 0 0 0 0 0 0 0 0 0 0 1 2 2 2 1 0 0 0 0 0 0 0 0 0 0 0 0 0
3 3 3 3 3 3 2 1 2 2 2 2 2 1 0 0 0 0 0 0 0 0 0 0 0 0 1 1 1 0 0 0 0 0 0 0 0 0 0 0 0 0 0
3 3 3 3 3 3 3 3 2 1 1 2 2 1 1 0 0 0 0 0 0 0 0 0 0 0 0 0 0 0 0 0 0 0 0 0 0 0 0 0 0 0 0
3 3 3 3 3 3 3 3 3 2 1 2 2 1 1 0 0 0 0 0 0 0 0 0 0 0 0 0 0 0 0 0 0 0 0 0 0 0 0 0 0 0 0
3 3 3 3 3 3 3 3 3 2 1 1 1 1 0 0 0 0 0 0 0 0 0 0 0 0 0 0 0 0 0 0 0 0 0 0 0 0 0 0 0 0 0
3 3 3 3 3 3 3 3 3 2 1 0 0 0 0 0 0 0 0 0 0 0 0 0 0 0 0 0 0 0 0 0 0 0 0 0 0 0 0 0 0 0 0
3 3 3 2 2 3 3 3 3 2 1 0 0 0 0 0 0 0 0 0 0 0 0 0 0 0 0 0 0 0 0 0 0 0 0 0 0 0 0 0 0 0 0
3 3 3 1 1 2 3 2 1 1 0 0 0 0 0 0 0 0 0 0 0 0 0 0 0 0 0 0 0 0 0 0 0 0 0 0 0 0 0 0 0 0 0
3 3 3 1 1 2 2 1 0 0 0 0 0 0 0 0 0 0 0 0 0 0 0 0 0 0 0 0 0 0 0 0 0 0 0 0 0 0 0 0 0 0 0
2 3 3 2 1 1 1 0 0 0 0 0 0 0 0 0 0 0 0 0 0 0 0 0 0 0 0 0 0 0 0 0 0 0 0 0 0 0 0 0 0 0 0
1 1 2 3 2 1 0 0 0 0 0 0 0 0 0 0 0 0 0 0 0 0 0 0 0 0 0 0 0 0 0 0 0 0 0 0 0 0 0 0 0 0 0
0 0 1 2 1 1 0 0 0 0 0 0 0 0 0 0 0 0 0 0 0 0 0 0 0 0 0 0 0 0 0 0 0 0 0 0 0 0 0 0 0 0 0
0 0 0 1 0 0 0 0 0 0 0 0 0 0 0 0 0 0 0 0 0 0 0 0 0 0 0 0 0 0 0 0 0 0 0 0 0 0 0 0 0 0 0
Wind_Speed
1 1 1 1 2 2 2 2 3 3 4 5 5 5 4 5 5 3 1 6 8 9 9 9 9 9 10 11 11 11 12 12 12 13 13 13 13 13 13 13 13 13 13
1 2 2 2 2 2 2 2 3 3 3 3 4 5 5 5 4 3 2 3 7 9 9 9 9 10 10 11 11 11 11 12 13 12 13 14 14 14 14 14 13 13 13
1 1 2 2 2 3 3 2 3 3 3 4 4 4 4 4 5 4 3 3 4 6 9 9 9 9 10 11 11 12 12 12 12 13 13 13 14 14 14 14 14 14 13
1 2 2 1 2 3 2 2 2 3 3 3 4 4 4 4 5 5 4 3 3 3 6 9 10 10 11 12 12 12 12 12 12 13 14 14 14 13 13 14 14 14 13
1 2 2 2 3 2 2 4 2 2 3 4 4 4 4 4 5 6 5 5 4 4 3 6 9 11 11 12 12 12 11 11 13 13 14 14 14 13 13 13 14 14 14
1 2 2 2 3 2 2 2 3 3 3 3 5 5 4 4 4 4 5 5 4 5 5 5 4 7 11 11 11 12 12 12 12 12 13 13 13 13 12 13 13 13 13
2 2 2 3 3 2 3 3 3 4 3 2 3 4 5 5 5 4 4 4 3 4 3 3 3 3 4 9 9 11 12 12 13 12 12 12 11 12 13 13 14 13 13
2 2 2 2 3 2 2 3 3 3 3 2 2 3 3 3 2 4 3 3 3 3 3 3 2 3 2 2 5 9 10 11 12 12 12 11 11 11 12 13 13 13 13
0 1 2 2 3 3 3 3 2 3 3 3 1 2 3 3 3 2 3 3 2 3 3 2 3 3 3 2 2 6 8 8 10 11 11 11 11 11 12 12 13 13 14
0 1 2 3 3 3 3 4 3 3 3 3 2 1 2 3 3 3 2 2 3 3 3 3 3 3 3 2 3 4 6 7 9 10 10 9 10 10 10 11 12 13 14
0 1 1 2 3 2 3 3 3 3 2 3 3 3 3 2 3 3 4 4 3 3 2 3 3 3 3 3 3 5 6 6 8 9 9 9 9 9 10 11 13 13 13
0 1 1 2 2 2 3 3 2 3 2 3 3 3 3 2 3 3 4 4 4 3 3 2 2 3 3 3 5 5 6 6 7 8 9 9 9 9 10 11 12 12 13
0 1 1 1 2 2 2 2 2 2 2 2 3 2 2 3 3 3 3 4 4 4 3 2 2 2 3 2 3 5 6 7 8 9 9 10 10 10 11 12 12 12 11
1 1 1 1 2 2 3 2 2 2 2 2 3 3 3 3 3 3 3 3 4 4 3 3 2 2 2 2 3 5 4 7 8 9 10 11 11 11 12 12 12 12 11
0 1 1 2 2 2 2 3 2 2 2 2 2 3 3 2 2 3 2 2 3 4 5 4 2 2 1 1 3 3 3 6 8 9 10 11 11 11 12 12 12 12 11
1 1 1 1 2 2 2 2 3 2 2 2 2 2 3 2 2 2 2 3 3 3 4 3 3 2 2 2 3 3 4 6 8 9 10 11 12 12 11 11 12 12 12
2 2 2 2 2 2 2 2 3 3 3 3 3 3 3 3 3 3 2 3 3 3 4 4 3 2 3 3 2 2 3 3 4 8 9 10 10 11 11 11 11 10 10
2 2 2 2 2 2 2 3 4 4 4 4 4 3 4 4 4 3 3 3 3 3 3 4 3 3 3 3 3 3 3 3 3 5 8 9 10 10 10 11 11 10 11
2 2 2 2 2 2 2 3 3 4 4 4 4 3 3 4 4 3 4 4 4 4 3 3 4 3 3 3 2 3 3 2 3 3 5 7 8 9 10 11 11 11 11
2 2 2 2 2 2 3 3 4 5 5 5 4 4 3 3 3 4 4 4 4 4 3 3 4 3 3 3 2 1 2 2 2 2 2 3 7 9 10 11 11 12 12
2 1 1 2 2 2 3 4 5 6 5 6 5 4 4 4 4 4 4 4 5 4 4 3 4 3 3 2 2 2 2 2 3 2 2 2 3 3 5 8 10 11 11
1 1 2 2 3 3 3 4 4 5 5 6 6 5 5 4 4 5 7 7 6 5 5 4 4 4 4 3 2 2 2 2 3 2 1 3 2 3 4 4 8 10 12
1 1 2 2 2 2 3 4 6 5 6 5 5 5 6 5 5 5 6 7 7 7 7 5 5 5 5 4 3 3 3 3 3 3 2 4 3 4 4 5 9 11 10
1 2 2 2 2 3 3 4 7 5 5 5 5 5 4 4 5 6 6 6 5 4 5 5 5 6 6 4 3 4 4 4 4 4 3 4 4 4 4 3 7 10 11
2 3 3 3 3 2 2 4 5 4 4 6 5 4 4 4 5 6 6 6 6 5 6 5 6 7 8 8 5 3 4 4 4 4 3 3 3 3 3 3 5 9 11
3 3 3 2 2 2 2 3 3 4 4 5 4 3 3 3 5 5 4 5 6 6 6 6 6 7 6 7 7 6 5 4 4 4 3 2 3 2 3 2 2 3 5
Wind_Direction
268 272 258 264 275 272 253 260 257 260 263 267 271 270 269 265 261 259 219 200 195 200 212 220 226 233 236 236 233 231 233 231 229 227 225 221 219 220 219 216 212 209 208
294 301 294 286 286 301 298 276 273 270 270 274 271 273 271 269 269 260 243 230 220 214 216 222 229 235 236 235 234 233 233 233 232 229 227 224 220 219 218 215 213 211 209
296 294 278 278 294 292 289 286 296 289 282 281 277 278 273 269 269 259 247 233 231 229 231 229 232 236 237 236 235 235 234 233 234 230 226 224 220 217 218 216 213 213 211
292 283 277 288 293 284 282 278 272 292 288 289 285 275 271 265 265 260 250 242 240 244 237 232 232 232 234 235 236 238 238 234 233 231 229 226 222 217 216 215 212 211 212
294 298 288 290 285 282 282 288 292 285 282 282 278 265 257 258 258 258 249 242 240 237 232 231 231 235 233 235 237 237 237 234 234 231 229 226 223 219 214 215 215 214 214
340 312 285 287 293 291 288 289 294 277 271 275 288 285 268 255 254 256 252 249 242 240 238 233 220 232 233 235 237 236 236 237 233 228 226 224 220 217 215 216 216 215 215
335 299 316 312 301 296 297 301 290 290 282 277 286 285 275 258 250 252 252 256 256 254 253 242 220 222 232 236 234 234 238 241 234 228 227 223 218 214 215 216 215 214 215
333 326 325 309 309 301 302 297 294 291 296 302 293 300 295 284 271 270 254 248 252 250 254 259 245 232 222 224 230 232 239 239 236 231 228 225 217 214 215 218 216 214 214
352 338 339 327 320 312 312 302 303 307 304 306 282 279 294 294 308 271 267 264 262 258 255 249 232 233 228 217 216 226 230 225 230 233 229 227 222 218 219 219 219 218 218
50 14 353 346 326 328 332 324 345 315 307 309 312 278 260 283 297 306 292 276 274 262 257 264 248 227 218 205 205 210 219 220 222 225 221 221 221 219 221 224 223 222 222
66 24 15 345 328 336 338 334 329 321 314 317 316 311 297 289 275 281 295 299 285 267 259 252 245 228 217 209 208 208 211 215 215 215 216 217 222 225 225 226 226 224 225
90 21 15 351 333 337 328 320 315 321 325 329 317 310 312 306 300 288 287 299 300 291 272 260 248 235 219 212 224 222 205 210 214 215 218 218 221 227 229 229 226 224 225
96 24 0 336 329 320 310 317 314 316 322 321 307 305 308 299 298 293 290 297 302 301 288 274 259 243 228 212 221 214 209 211 213 217 219 220 222 227 232 233 230 225 224
58 39 324 318 317 318 326 325 315 320 333 316 316 314 299 293 295 289 285 291 301 303 295 284 280 258 238 211 216 216 212 212 214 219 220 220 221 225 231 234 231 226 225
346 342 305 309 310 316 319 319 322 325 325 312 312 307 301 292 289 288 281 271 273 295 299 295 295 281 256 218 217 216 220 217 214 218 222 221 221 225 228 229 229 224 223
329 284 289 298 298 307 323 327 316 313 310 302 295 306 310 307 304 288 286 286 270 269 286 293 292 283 270 262 240 229 226 225 218 217 217 219 221 224 227 228 227 224 222
299 298 312 306 305 309 320 312 305 307 309 312 311 319 316 305 315 309 299 288 283 281 286 293 292 294 274 265 257 242 238 224 218 220 219 218 218 218 219 222 221 220 220
298 313 313 305 307 326 329 315 313 321 315 315 315 314 316 321 326 316 316 305 298 289 287 294 293 289 279 269 252 247 253 248 230 226 220 218 218 219 217 217 216 216 219
289 291 297 299 314 330 327 326 329 324 319 316 310 308 312 317 317 319 317 316 309 305 297 290 288 277 267 263 261 258 256 257 261 247 226 220 223 223 220 219 219 218 218
274 286 302 314 328 345 348 349 339 324 320 318 314 308 301 302 304 312 308 308 309 308 299 292 282 281 276 269 261 259 276 266 265 267 247 228 223 223 222 223 222 220 217
290 305 319 321 325 333 2 356 330 322 320 314 312 312 306 299 293 289 297 303 306 300 298 294 290 289 284 280 274 274 273 272 266 250 238 243 223 218 219 224 224 224 220
316 322 318 323 329 334 343 335 324 315 308 306 310 309 299 284 294 279 273 278 276 280 293 294 293 289 289 288 285 286 288 285 283 261 249 263 244 235 227 218 210 213 214
318 299 297 302 305 306 311 315 314 302 299 300 301 301 308 320 317 306 290 283 275 260 247 256 279 283 282 281 283 285 279 277 274 266 261 265 252 248 241 228 206 206 210
287 283 277 277 280 299 298 308 310 290 292 295 295 295 298 306 315 310 303 300 290 288 269 249 254 270 278 282 275 269 265 272 267 259 235 255 256 252 255 227 209 208 210
270 272 273 272 277 289 283 296 308 301 300 303 306 312 311 312 317 317 310 304 302 304 304 302 279 277 281 276 270 277 275 272 273 268 243 248 256 255 250 233 219 215 215
260 264 271 276 278 278 267 276 299 298 309 315 313 308 314 326 323 329 315 310 306 307 318 320 310 294 279 266 249 234 246 258 266 270 253 250 264 270 272 245 214 205 216